This demonstration page uses our WeatherBlox Daily Observations layout. Learn more.

Left ArrowRight Arrow

44.8408, -93.29828

Hourly Observations for June 16, 2015

Temp ( °F °C ) Dew Point ( °F °C ) Humidity (%) Winds ( mph kmh ) Pressure ( in mb ) Visibility ( mi km ) Precip ( " mm )
12:53 am 00:53 Clear 64 17.8 47 8.3 54 54 NNW 15 24 30.16 1021 10 16 0.00 0.00
1:53 am 01:53 Clear 62 16.7 47 8.3 58 58 N 8 13 30.16 1021 10 16 0.00 0.00
2:53 am 02:53 Clear 60 15.6 48 8.9 65 65 N 6 9 30.17 1022 10 16 0.00 0.00
3:53 am 03:53 Clear 58 14.4 46 7.8 65 65 N 6 9 30.18 1022 10 16 0.00 0.00
4:53 am 04:53 Mostly Clear 56 13.3 47 8.3 72 72 N 6 9 30.20 1023 10 16 0.00 0.00
5:53 am 05:53 Mostly Sunny 56 13.3 47 8.3 72 72 N 5 7 30.21 1023 10 16 0.00 0.00
6:53 am 06:53 Mostly Sunny 58 14.4 48 8.9 70 70 N 6 9 30.22 1023 10 16 0.00 0.00
7:53 am 07:53 Sunny 60 15.6 47 8.3 62 62 NE 8 13 30.21 1023 10 16 0.00 0.00
8:53 am 08:53 Sunny 63 17.2 48 8.9 58 58 E 9 15 30.21 1023 10 16 0.00 0.00
9:53 am 09:53 Mostly Sunny 63 17.2 47 8.3 56 56 VRB 7 11 30.21 1023 10 16 0.00 0.00
10:53 am 10:53 Mostly Sunny 66 18.9 46 7.8 49 49 VRB 3 6 30.19 1023 10 16 0.00 0.00
11:53 am 11:53 Mostly Sunny 67 19.4 47 8.3 49 49 VRB 5 7 30.18 1022 10 16 0.00 0.00
12:53 pm 12:53 Mostly Cloudy 68 20 47 8.3 47 47 NNE 7 11 30.18 1022 10 16 0.00 0.00
1:53 pm 13:53 Mostly Cloudy 70 21.1 47 8.3 44 44 ENE 3 6 30.16 1022 10 16 0.00 0.00
2:53 pm 14:53 Mostly Cloudy 70 21.1 48 8.9 46 46 ENE 5 7 30.15 1021 10 16 0.00 0.00
3:53 pm 15:53 Mostly Cloudy 70 21.1 46 7.8 42 42 ENE 5 7 30.13 1020 10 16 0.00 0.00
4:53 pm 16:53 Cloudy 70 21.1 46 7.8 42 42 VRB 5 7 30.14 1021 10 16 0.00 0.00
5:53 pm 17:53 Cloudy 71 21.7 47 8.3 42 42 NNE 7 11 30.11 1020 10 16 0.00 0.00
6:53 pm 18:53 Cloudy 68 20 48 8.9 49 49 N 14 22 30.11 1020 10 16 0.00 0.03
7:53 pm 19:53 Cloudy with Light Rain 63 17.2 49 9.4 60 60 NNE 17 28 30.11 1020 10 16 0.00 0.03
8:53 pm 20:53 Cloudy with Light Rain 59 15 53 11.7 81 81 NNE 14 22 30.10 1019 10 16 0.00 0.03
9:53 pm 21:53 Cloudy 60 15.6 51 10.6 72 72 NE 10 17 30.11 1020 10 16 0.00 0.03
10:53 pm 22:53 Cloudy 60 15.6 51 10.6 72 72 NNE 10 17 30.09 1019 10 16 0.00 0.03

Powered by AerisWeather